パンスターズ彗星

C/2016 T3 ( PanSTARRS )

English version
Home page
Updated on May 21, 2018

---------------------------------------------------------------------

・ プロフィール

発見日 2016年10月10日
発見光度 20.1等
発見者 Pan-STARRS 1 telescope (Haleakala)

・ 写真集

・ 軌道要素

Epoch 2017 Sept. 4.0 TT = JDT 2458000.5
T 2017 Sept. 6.98126 TT                                 MPCW
q   2.6494793            (2000.0)            P               Q
z  +0.0070469      Peri.  194.67846     -0.26321165     -0.88443705
 +/-0.0000021      Node   271.74836     +0.91943904     -0.10901412
e   0.9813293      Incl.   22.67630     +0.29214976     -0.45374776
From 406 observations 2016 Oct. 10-2018 Mar. 24, mean residual 0".6.

・ 星図

・ 光度変化

        m1 = 10.2 + 5 logΔ + 10.0 log r(t + 50)

---------------------------------------------------------------------

軌道要素はM.P.E.C. 2018-F152に掲載されたものです。
星図はステラナビゲータ Ver.10 (アストロアーツ) で作成したものです。
光度グラフはComet for Windowsで作成したものです。

---------------------------------------------------------------------

Copyright(C) Seiichi Yoshida (comet@aerith.net). All rights reserved.